Location: Carr Mill
(33.2054°N, 85.9439°W)
Time: 00:14:00
(UTC+00:00)

Helios 1A Rocket - Pass Details

Date: 29 October 2020
Orbit: 562 x 587 km, 98.3° (Epoch: 28 November)

Event Time Altitude Azimuth Distance (km) Brightness Sun altitude
Rises 23:34:37 0° 140° (SE) 2,795 6.1 -9.0°
Reaches altitude 10° 23:37:01 10° 127° (SE) 1,896 5.2 -9.5°
Maximum altitude 23:40:25 26° 71° (ENE) 1,167 3.9 -10.2°
Drops below altitude 10° 23:43:50 10° 15° (NNE) 1,895 5.3 -10.9°
Sets 23:46:14 0° 2° (N) 2,794 6.3 -11.4°
